KLM640 EHAM-KSAN

Flight info

Callsign KLM640
Flight time N/A
Altitude 38000
Route BERGI L602 EMLON M79 TENDO DCT NAVSO DCT IBROD DCT SUNOT/M083F350 DCT 58N020W 58N030W 58N040W 57N050W DCT HOIST/N0471F360 DCT 5470N DCT 5280N DCT YQT/N0482F380 DCT DLH DCT SNY DCT HVE DCT PGS DCT PKE DCT LUCKI LUCKI1
Aircraft B77W/H-SDE1E2E3FGHIJ2J3J4J5M1RWXY/LB1D1

Departure

Time N/A
Airport Amsterdam Airport Schiphol (EHAM)

Arrival

Time 2026-05-07 00:21
Airport San Diego International Airport (KSAN)
Time Latitude Longitude Altitude Speed Heading
2026-05-06 23:50 34.83741 -114.04159 38100 ft 536 kts 217°
2026-05-06 23:51 34.77684 -114.09489 38055 ft 539 kts 217°
2026-05-06 23:51 34.71617 -114.14818 38015 ft 538 kts 217°
2026-05-06 23:52 34.65573 -114.20116 37995 ft 537 kts 216°
2026-05-06 23:52 34.59484 -114.25442 37979 ft 539 kts 216°
2026-05-06 23:53 34.53424 -114.30735 37986 ft 540 kts 216°
2026-05-06 23:53 34.47353 -114.36027 37978 ft 537 kts 216°
2026-05-06 23:54 34.41282 -114.41309 37978 ft 538 kts 216°
2026-05-06 23:54 34.35211 -114.46582 37987 ft 538 kts 216°
2026-05-06 23:55 34.29133 -114.51852 37985 ft 537 kts 216°
2026-05-06 23:55 34.23048 -114.57117 37993 ft 538 kts 216°
2026-05-06 23:56 34.20011 -114.59742 37825 ft 538 kts 216°
2026-05-06 23:56 34.16974 -114.62364 38012 ft 538 kts 216°
2026-05-06 23:56 34.10952 -114.67763 37980 ft 540 kts 222°
2026-05-06 23:57 34.06002 -114.74532 37982 ft 538 kts 234°
2026-05-06 23:57 34.01483 -114.81755 37948 ft 537 kts 234°
2026-05-06 23:58 33.96967 -114.88921 37979 ft 539 kts 234°
2026-05-06 23:58 33.92439 -114.96059 37959 ft 539 kts 234°
2026-05-06 23:59 33.87876 -115.03219 37952 ft 541 kts 234°
2026-05-06 23:59 33.83508 -115.10050 37941 ft 539 kts 234°
2026-05-07 00:00 33.78943 -115.17170 37931 ft 539 kts 233°
2026-05-07 00:00 33.74391 -115.24249 37530 ft 530 kts 234°
2026-05-07 00:01 33.72124 -115.27771 36415 ft 535 kts 233°
2026-05-07 00:01 33.69850 -115.31300 35509 ft 538 kts 233°
2026-05-07 00:01 33.68004 -115.34161 34902 ft 539 kts 233°
2026-05-07 00:01 33.65729 -115.37685 34042 ft 542 kts 233°
2026-05-07 00:02 33.63409 -115.41275 33035 ft 547 kts 233°
2026-05-07 00:02 33.61074 -115.44885 32009 ft 551 kts 233°
2026-05-07 00:02 33.58731 -115.48501 31007 ft 553 kts 233°
2026-05-07 00:02 33.56388 -115.52114 30254 ft 550 kts 233°
2026-05-07 00:03 33.54057 -115.55705 29720 ft 542 kts 233°
2026-05-07 00:03 33.51749 -115.59258 29122 ft 535 kts 233°
2026-05-07 00:03 33.49511 -115.62698 28494 ft 530 kts 233°
2026-05-07 00:03 33.47258 -115.66160 27836 ft 525 kts 233°
2026-05-07 00:04 33.45008 -115.69613 27176 ft 520 kts 232°
2026-05-07 00:04 33.42799 -115.73000 26519 ft 514 kts 232°
2026-05-07 00:04 33.40608 -115.76356 25872 ft 509 kts 233°
2026-05-07 00:04 33.38435 -115.79681 25226 ft 504 kts 233°
2026-05-07 00:05 33.36283 -115.82973 24581 ft 499 kts 233°
2026-05-07 00:05 33.34180 -115.86186 23922 ft 493 kts 233°
2026-05-07 00:05 33.32074 -115.89399 23273 ft 487 kts 233°
2026-05-07 00:05 33.30016 -115.92539 22657 ft 481 kts 233°
2026-05-07 00:06 33.27973 -115.95652 21945 ft 467 kts 233°
2026-05-07 00:06 33.25997 -115.98659 21526 ft 453 kts 233°
2026-05-07 00:06 33.24080 -116.01576 20894 ft 450 kts 233°
2026-05-07 00:06 33.22152 -116.04507 20262 ft 447 kts 233°
2026-05-07 00:07 33.20228 -116.07431 19676 ft 444 kts 233°
2026-05-07 00:07 33.18350 -116.10282 19069 ft 440 kts 233°
2026-05-07 00:07 33.16473 -116.13129 18482 ft 437 kts 233°
2026-05-07 00:07 33.14599 -116.15968 17887 ft 433 kts 232°
2026-05-07 00:08 33.12743 -116.18780 17288 ft 430 kts 233°
2026-05-07 00:08 33.10918 -116.21542 16681 ft 427 kts 232°
2026-05-07 00:08 33.09067 -116.24341 16018 ft 426 kts 232°
2026-05-07 00:08 33.07250 -116.27086 15414 ft 423 kts 232°
2026-05-07 00:09 33.05428 -116.29836 14815 ft 421 kts 232°
2026-05-07 00:09 33.03632 -116.32546 14226 ft 418 kts 233°
2026-05-07 00:09 33.01824 -116.35272 13608 ft 415 kts 232°
2026-05-07 00:09 33.00059 -116.37929 13024 ft 412 kts 232°
2026-05-07 00:10 32.98286 -116.40600 12426 ft 409 kts 233°
2026-05-07 00:10 32.96544 -116.43218 11838 ft 405 kts 233°
2026-05-07 00:10 32.94790 -116.45856 11232 ft 403 kts 233°
2026-05-07 00:10 32.93059 -116.48454 10686 ft 398 kts 233°
2026-05-07 00:11 32.91394 -116.50953 10565 ft 381 kts 233°
2026-05-07 00:11 32.89774 -116.53383 10471 ft 364 kts 233°
2026-05-07 00:11 32.88226 -116.55703 10317 ft 350 kts 233°
2026-05-07 00:11 32.86732 -116.57941 10157 ft 338 kts 233°
2026-05-07 00:12 32.85303 -116.60082 10015 ft 327 kts 233°
2026-05-07 00:12 32.83895 -116.62189 9713 ft 323 kts 233°
2026-05-07 00:12 32.82512 -116.64259 9281 ft 320 kts 233°
2026-05-07 00:12 32.81163 -116.66274 9009 ft 305 kts 233°
2026-05-07 00:13 32.79858 -116.68225 8584 ft 300 kts 233°
2026-05-07 00:13 32.78552 -116.70177 8157 ft 302 kts 233°
2026-05-07 00:13 32.77246 -116.72125 7759 ft 302 kts 233°
2026-05-07 00:13 32.75940 -116.74075 7377 ft 301 kts 232°
2026-05-07 00:14 32.74640 -116.76012 7093 ft 296 kts 232°
2026-05-07 00:14 32.73369 -116.77906 6783 ft 294 kts 232°
2026-05-07 00:14 32.72077 -116.79829 6338 ft 295 kts 233°
2026-05-07 00:14 32.70888 -116.81744 5977 ft 283 kts 244°
2026-05-07 00:15 32.70114 -116.83823 5741 ft 273 kts 251°
2026-05-07 00:15 32.69462 -116.85901 5373 ft 266 kts 251°
2026-05-07 00:15 32.68830 -116.87948 5044 ft 257 kts 251°
2026-05-07 00:15 32.68249 -116.89887 4762 ft 248 kts 253°
2026-05-07 00:16 32.67690 -116.91805 4486 ft 240 kts 253°
2026-05-07 00:16 32.67394 -116.93689 4232 ft 230 kts 276°
2026-05-07 00:16 32.67665 -116.95539 3969 ft 226 kts 287°
2026-05-07 00:16 32.68086 -116.97334 3709 ft 224 kts 288°
2026-05-07 00:17 32.68518 -116.99097 3458 ft 221 kts 288°
2026-05-07 00:17 32.68944 -117.00836 3177 ft 215 kts 289°
2026-05-07 00:17 32.69353 -117.02510 2954 ft 205 kts 289°
2026-05-07 00:17 32.69741 -117.04095 2740 ft 196 kts 288°
2026-05-07 00:18 32.70106 -117.05595 2476 ft 181 kts 288°
2026-05-07 00:18 32.70446 -117.06987 2207 ft 170 kts 287°
2026-05-07 00:18 32.70765 -117.08292 1938 ft 162 kts 287°
2026-05-07 00:18 32.71067 -117.09538 1687 ft 149 kts 287°
2026-05-07 00:19 32.71340 -117.10660 1454 ft 138 kts 287°
2026-05-07 00:19 32.71604 -117.11746 1254 ft 136 kts 287°
2026-05-07 00:19 32.71865 -117.12818 1032 ft 134 kts 287°
2026-05-07 00:19 32.72122 -117.13878 831 ft 134 kts 287°
2026-05-07 00:20 32.72378 -117.14938 634 ft 133 kts 286°
2026-05-07 00:20 32.72624 -117.15990 451 ft 133 kts 287°
2026-05-07 00:20 32.72886 -117.17050 232 ft 133 kts 286°
2026-05-07 00:20 32.73143 -117.18098 54 ft 130 kts 286°
2026-05-07 00:21 32.73363 -117.19009 32 ft 90 kts 285°
2026-05-07 00:21 32.73475 -117.19463 31 ft 27 kts 286°
2026-05-07 00:21 32.73527 -117.19680 30 ft 23 kts 284°
2026-05-07 00:21 32.73506 -117.19852 30 ft 19 kts 251°
2026-05-07 00:22 32.73503 -117.19996 29 ft 15 kts 285°
2026-05-07 00:22 32.73531 -117.20116 29 ft 14 kts 286°
2026-05-07 00:22 32.73559 -117.20230 29 ft 13 kts 286°
2026-05-07 00:22 32.73586 -117.20338 28 ft 13 kts 286°
2026-05-07 00:23 32.73568 -117.20435 28 ft 12 kts 232°
2026-05-07 00:23 32.73508 -117.20522 28 ft 14 kts 225°
2026-05-07 00:23 32.73415 -117.20562 28 ft 14 kts 182°
2026-05-07 00:23 32.73329 -117.20557 28 ft 8 kts 169°
2026-05-07 00:24 32.73281 -117.20548 28 ft 2 kts 171°
2026-05-07 00:24 32.73259 -117.20543 27 ft 0 kts 170°